[[{"header":{"parameterUnit":"m.s-1","parameterCategory":1,"la1":30.2991,"la2":30.254,"lo1":-89.0895,"lo2":-89.0444,"dy":0.0017,"dx":0.0017,"nx":28,"ny":28,"refTime":"2025-09-09T03:00:00:Z","depth":0,"parameterNumber":2,"parameterNumberName":"U-component_of_WINDS"},"data":[0,0,0,0,0,0,0,0,0,0,0,0,0,0,0,0,0,0,0,0,0,0,0,0,0,0,0,0,0,0,0,0,0,0,0,0,0,0,0,0,0,0,0,0,0,0,0,0,0,0,0,0,0,0,0,0,0,0,-3.7189,-3.7192,0,-3.7459,-3.7462,-3.7465,-3.7451,-3.7447,-3.7444,-3.744,-3.7723,-3.7734,-3.7745,0,0,0,0,0,0,0,0,0,0,0,0,0,-3.6669,-3.6678,-3.7188,-3.7192,-3.7195,-3.7458,-3.7462,-3.7466,-3.7452,-3.7447,-3.7443,-3.7438,-3.7719,-3.7733,-3.7746,0,0,0,0,0,0,0,0,0,0,0,0,0,-3.6912,-3.6681,-3.7188,-3.722,-3.7226,-3.7457,-3.7462,-3.7467,-3.7453,-3.7447,-3.7441,-3.7436,-3.7715,-3.7731,-3.7748,-3.7967,0,0,-3.7799,-3.7806,0,0,0,0,0,0,0,0,-3.6898,-3.6931,-3.7212,-3.7218,-3.7225,-3.7415,-3.7382,-3.7635,-3.7454,-3.7367,-3.744,-3.7433,-3.7626,-3.765,-3.7713,-3.7981,-3.7993,-3.78,-3.7811,-3.7818,-3.7822,0,0,0,0,0,0,0,-3.6882,-3.692,-3.7296,-3.7216,-3.7224,-3.7223,-3.7252,-3.743,-3.7526,-3.7374,-3.7374,-3.7406,-3.7628,-3.7697,-3.772,-3.7997,-3.78,-3.7815,-3.7825,-3.7832,-3.846,-3.8467,0,0,0,0,0,0,-3.6857,-3.6906,-3.7287,-3.7304,-3.7044,-3.7237,-3.7269,-3.736,-3.7524,-3.7543,-3.741,-3.7404,-3.7671,-3.77,-3.773,-3.7998,-3.7818,-3.7833,-3.7843,-3.8454,-3.8462,-3.8469,0,0,0,0,0,0,-3.6846,-3.6891,-3.7276,-3.7105,-3.7154,-3.7253,-3.7355,-3.7369,-3.7437,-3.7551,-3.7569,-3.7462,-3.7668,-3.7706,-3.7908,-3.8007,-3.7841,-3.7856,-3.8446,-3.8456,-3.8466,-3.8536,0,0,0,0,0,0,-3.6831,-3.6887,-3.6969,-3.7107,-3.7163,-3.7448,-3.7361,-3.7378,-3.7465,-3.7459,-3.7605,-3.7623,-3.7666,-3.7883,-3.7925,-3.8027,-3.7869,-3.8438,-3.8451,-3.8462,-3.8525,-3.8547,-3.8566,0,0,0,0,0,-3.6812,-3.6979,-3.6973,-3.702,-3.7268,-3.7454,-3.7486,-3.753,-3.7473,-3.7558,-3.7632,-3.7619,-3.799,-3.7904,-3.7951,-3.806,-3.8431,-3.8447,-3.8461,-3.8516,-3.8543,-3.8565,0,0,0,0,0,0,-3.6853,-3.6998,-3.6993,-3.7209,-3.7319,-3.7451,-3.7559,-3.7557,-3.7687,-3.7676,-3.7728,-3.7761,-3.7964,-3.8033,-3.7934,-3.8282,-3.8204,-3.8229,-3.8229,-3.8256,-3.8276,-3.8254,-3.7883,0,0,0,0,0,-3.6887,-3.7023,-3.7144,-3.7323,-3.7378,-3.746,-3.7542,-3.7567,-3.7684,-3.7731,-3.7819,-3.7935,-3.8078,-3.8171,-3.8309,-3.8536,-3.8568,-3.8634,-3.8654,-3.867,-3.8691,-3.8818,-3.8849,-3.8518,-3.8518,-3.8518,0,0,-3.6959,-3.7055,-3.7138,-3.7334,-3.7422,-3.7564,-3.7499,-3.7652,-3.7759,-3.7755,-3.795,-3.802,-3.8153,-3.8368,-3.8468,-3.8432,-3.879,-3.869,-3.8702,-3.8714,-3.8836,-3.8868,-3.8895,-3.8529,-3.8527,-3.8525,0,0,-3.7162,-3.7248,-3.7407,-3.7496,-3.763,-3.7683,-3.7722,-3.7855,-3.79,-3.8097,-3.8097,-3.8227,-3.8472,-3.8566,-3.8647,-3.8889,-3.8882,-3.8933,-3.9039,-3.9161,-3.9187,-3.9211,-3.9297,-3.9328,-3.8954,-3.8954,-3.8954,0,-3.7234,-3.7447,-3.7489,-3.7644,-3.7731,-3.7732,-3.7895,-3.7981,-3.8154,-3.8215,-3.8172,-3.848,-3.857,-3.8808,-3.8867,-3.8932,-3.8979,-3.8916,-3.918,-3.9204,-3.9226,-3.9309,-3.9342,-3.8959,-3.8958,-3.8958,-3.8957,0,-3.753,-3.7678,-3.7791,-3.7955,-3.8055,-3.8213,-3.8282,-3.8379,-3.8396,-3.8454,-3.8657,-3.8765,-3.8925,-3.8984,-3.9002,-3.9226,-3.9199,-3.9168,-3.909,-3.9262,-3.9341,-3.9373,-3.8966,-3.8965,-3.8963,-3.8962,0,0,-3.7764,-3.7951,-3.7991,-3.8067,-3.8215,-3.8332,-3.8492,-3.8646,-3.8728,-3.8849,-3.8985,-3.9193,-3.9165,-3.9257,-3.9287,-3.9395,-3.9581,-3.9351,-3.9354,-3.9389,-3.9835,-3.9856,-3.9892,-3.9578,-3.9584,-3.9589,-3.9824,0,-3.7982,-3.8261,-3.8305,-3.8552,-3.869,-3.8695,-3.8834,-3.8942,-3.9002,-3.913,-3.9198,-3.9344,-3.9296,-3.9352,-3.9459,-3.9535,-3.9671,-3.9519,-3.9707,-3.9713,-3.9671,-3.9934,-3.9957,-4.0173,-3.9855,-3.986,-3.9864,0,-3.8272,-3.8398,-3.8658,-3.8789,-3.8848,-3.8972,-3.9119,-3.924,-3.9364,-3.9401,-3.9504,-3.9522,-3.969,-3.9606,-3.9841,-3.9737,-3.9817,-3.9866,-3.9876,-3.9894,-3.9797,-3.9959,-4.0243,-4.0275,-3.9913,-3.9909,-3.9906,0,-3.8416,-3.8651,-3.8837,-3.8901,-3.9059,-3.9146,-3.9217,-3.9335,-3.9425,-3.9555,-3.9615,-3.9763,-3.9844,-3.996,-4.0019,-3.9952,-4.025,-4.017,-4.0286,-4.0285,-4.0347,-4.0342,-4.0647,-4.0401,-4.04,-4.04,-4.0399,0,-3.8653,-3.8812,-3.8903,-3.9017,-3.9196,-3.9248,-3.9425,-3.9494,-3.9599,-3.9729,-3.9744,-3.9866,-3.9937,-4.007,-4.0118,-4.0305,-4.0342,-4.0378,-4.0388,-4.0376,-4.0371,-4.0428,-4.0414,-4.0408,-4.0406,-4.0405,-4.0403,0,-3.8842,-3.891,-3.9113,-3.9246,-3.9283,-3.941,-3.9525,-3.9638,-3.9698,-3.9862,-3.9904,-4.0,-4.0158,-4.0229,-4.0425,-4.0457,-4.0671,-4.0671,-4.0627,-4.0631,-4.0742,-4.0731,-4.1094,-4.1144,-4.0865,-4.0868,-4.087,0,-3.8988,-3.911,-3.9257,-3.9343,-3.9416,-3.9556,-3.9648,-3.9706,-3.9802,-3.9953,-4.0049,-4.0207,-4.0336,-4.0589,-4.0678,-4.0829,-4.0833,-4.095,-4.0855,-4.0839,-4.0834,-4.0825,-4.0838,-4.0966,-4.0969,-4.0971,-4.0973,0,-3.924,-3.9268,-3.9399,-3.9544,-3.9653,-3.977,-3.9885,-3.9956,-4.0032,-4.014,-4.0301,-4.0401,-4.0601,-4.0758,-4.0915,-4.0991,-4.0996,-4.1002,-4.1037,-4.1024,-4.0994,-4.1011,-4.0673,-4.0993,-4.0991,-4.099,-4.0988,-4.0988,-3.9412,-3.9521,-3.9641,-3.9788,-3.988,-3.9987,-4.0099,-4.0174,-4.0308,-4.0473,-4.05,-4.0672,-4.0797,-4.1007,-4.1089,-4.1226,-4.1198,-4.1248,-4.1261,-4.1272,-4.1278,-4.0973,-4.1255,-4.1255,-4.1255,-4.1254,-4.1254,0,-3.9664,-3.9742,-3.9876,-4.0035,-4.0152,-4.0145,-4.0272,-4.037,-4.052,-4.0635,-4.0762,-4.0948,-4.1102,-4.1203,-4.136,-4.145,-4.1457,-4.1489,-4.1483,-4.15,-4.1295,-4.1249,-4.1482,-4.1482,-4.1482,-4.1482,-4.1481,-4.1481,-3.9808,-3.9992,-4.0035,-4.0266,-4.0344,-4.051,-4.0583,-4.0684,-4.0775,-4.0981,-4.1108,-4.1173,-4.1284,-4.1449,-4.1591,-4.1617,-4.1674,-4.1708,-4.1733,-4.1539,-4.1515,-4.1492,-4.1449,-4.172,-4.172,-4.1927,-4.1929,-4.193]},{"header":{"parameterUnit":"m.s-1","parameterCategory":1,"la1":30.2991,"la2":30.254,"lo1":-89.0895,"lo2":-89.0444,"dy":0.0017,"dx":0.0017,"nx":28,"ny":28,"refTime":"2025-09-09T03:00:00:Z","depth":0,"parameterNumber":3,"parameterNumberName":"V-component_of_WINDS"},"data":[0,0,0,0,0,0,0,0,0,0,0,0,0,0,0,0,0,0,0,0,0,0,0,0,0,0,0,0,0,0,0,0,0,0,0,0,0,0,0,0,0,0,0,0,0,0,0,0,0,0,0,0,0,0,0,0,0,0,-1.3826,-1.3827,0,-1.3878,-1.3878,-1.3879,-1.389,-1.3889,-1.3889,-1.3889,-1.3937,-1.3939,-1.3941,0,0,0,0,0,0,0,0,0,0,0,0,0,-1.3732,-1.3733,-1.3826,-1.3827,-1.3827,-1.3878,-1.3878,-1.3879,-1.389,-1.3889,-1.3889,-1.3889,-1.3937,-1.3939,-1.3941,0,0,0,0,0,0,0,0,0,0,0,0,0,-1.3777,-1.3734,-1.3826,-1.3839,-1.384,-1.3878,-1.3878,-1.3879,-1.389,-1.3889,-1.3889,-1.3888,-1.3936,-1.3939,-1.3941,-1.3968,0,0,-1.3949,-1.395,0,0,0,0,0,0,0,0,-1.3774,-1.378,-1.3836,-1.3838,-1.384,-1.3877,-1.3863,-1.3909,-1.389,-1.3871,-1.3889,-1.3888,-1.3917,-1.3921,-1.3932,-1.397,-1.3972,-1.3949,-1.395,-1.3951,-1.3952,0,0,0,0,0,0,0,-1.3771,-1.3778,-1.3846,-1.3837,-1.3839,-1.3841,-1.3846,-1.3872,-1.3897,-1.3873,-1.3874,-1.388,-1.3918,-1.393,-1.3933,-1.3973,-1.3949,-1.3951,-1.3953,-1.3953,-1.4034,-1.4035,0,0,0,0,0,0,-1.3766,-1.3775,-1.3845,-1.3848,-1.3805,-1.3843,-1.3849,-1.3865,-1.3896,-1.3901,-1.388,-1.388,-1.3926,-1.3931,-1.3935,-1.3968,-1.3951,-1.3954,-1.3955,-1.4033,-1.4034,-1.4035,0,0,0,0,0,0,-1.3764,-1.3772,-1.3843,-1.3812,-1.3821,-1.3845,-1.3863,-1.3867,-1.3878,-1.3902,-1.3906,-1.3888,-1.3926,-1.3932,-1.396,-1.397,-1.3955,-1.3957,-1.4033,-1.4034,-1.4035,-1.4034,0,0,0,0,0,0,-1.3762,-1.3772,-1.3783,-1.3812,-1.3823,-1.3867,-1.3864,-1.3868,-1.3883,-1.3884,-1.391,-1.3914,-1.3926,-1.3956,-1.3962,-1.3973,-1.3959,-1.4032,-1.4033,-1.4034,-1.4033,-1.4035,-1.4036,0,0,0,0,0,-1.3758,-1.378,-1.3784,-1.3792,-1.3838,-1.3868,-1.3874,-1.3888,-1.3884,-1.3895,-1.391,-1.3913,-1.3968,-1.3959,-1.3966,-1.3977,-1.4031,-1.4033,-1.4034,-1.4032,-1.4034,-1.4036,0,0,0,0,0,0,-1.375,-1.3784,-1.3788,-1.3821,-1.3842,-1.387,-1.3884,-1.389,-1.3911,-1.391,-1.3925,-1.3931,-1.3958,-1.3971,-1.396,-1.4004,-1.3999,-1.4002,-1.3995,-1.3997,-1.3999,-1.3995,-1.3961,0,0,0,0,0,-1.3752,-1.3775,-1.3803,-1.3829,-1.3839,-1.386,-1.3874,-1.3883,-1.3904,-1.3913,-1.393,-1.395,-1.3971,-1.3985,-1.4006,-1.4035,-1.404,-1.4046,-1.4048,-1.4049,-1.4051,-1.4067,-1.4069,-1.404,-1.404,-1.404,0,0,-1.3756,-1.3778,-1.3791,-1.3828,-1.3845,-1.3867,-1.3867,-1.3891,-1.3907,-1.3916,-1.3944,-1.3957,-1.398,-1.4008,-1.4022,-1.4019,-1.4061,-1.4051,-1.4052,-1.4053,-1.4068,-1.4071,-1.4074,-1.4041,-1.4041,-1.404,0,0,-1.3775,-1.3794,-1.3818,-1.3835,-1.3862,-1.3875,-1.3881,-1.3909,-1.3918,-1.3947,-1.3954,-1.3973,-1.401,-1.4026,-1.4038,-1.4063,-1.4067,-1.407,-1.4077,-1.4092,-1.4095,-1.4097,-1.4105,-1.4108,-1.4072,-1.4072,-1.4072,0,-1.3776,-1.3812,-1.3828,-1.3852,-1.3867,-1.3878,-1.3901,-1.3917,-1.3948,-1.3958,-1.3955,-1.4002,-1.4018,-1.405,-1.4056,-1.4067,-1.4072,-1.4067,-1.4093,-1.4096,-1.4098,-1.4106,-1.4109,-1.4072,-1.4072,-1.4072,-1.4072,0,-1.3812,-1.3836,-1.3852,-1.3884,-1.3901,-1.3924,-1.3942,-1.3957,-1.3965,-1.3978,-1.4006,-1.4026,-1.4051,-1.406,-1.4067,-1.4093,-1.409,-1.409,-1.4085,-1.41,-1.4108,-1.4111,-1.4072,-1.4072,-1.4072,-1.4072,0,0,-1.3827,-1.3868,-1.3873,-1.3887,-1.3918,-1.3936,-1.3959,-1.3985,-1.3998,-1.4019,-1.4038,-1.4069,-1.4069,-1.4084,-1.4093,-1.4106,-1.4124,-1.4104,-1.4105,-1.4107,-1.4152,-1.4152,-1.4155,-1.4126,-1.4127,-1.4128,-1.415,0,-1.3849,-1.3892,-1.3907,-1.3942,-1.3964,-1.3975,-1.3995,-1.4014,-1.4027,-1.4047,-1.4061,-1.4083,-1.4082,-1.4091,-1.4104,-1.4119,-1.4133,-1.4117,-1.4143,-1.4143,-1.4136,-1.4159,-1.4159,-1.4179,-1.4153,-1.4154,-1.4154,0,-1.388,-1.3904,-1.3941,-1.3969,-1.3979,-1.3996,-1.4021,-1.404,-1.4063,-1.4071,-1.4088,-1.4096,-1.4119,-1.4113,-1.4144,-1.4133,-1.4144,-1.4153,-1.4154,-1.4157,-1.4149,-1.4161,-1.4186,-1.4189,-1.4159,-1.4159,-1.4158,0,-1.3887,-1.3927,-1.3955,-1.3967,-1.4,-1.4012,-1.4026,-1.4048,-1.4062,-1.4084,-1.4093,-1.4116,-1.4129,-1.4146,-1.4159,-1.4154,-1.4189,-1.4184,-1.4196,-1.4195,-1.4202,-1.4201,-1.4228,-1.421,-1.421,-1.421,-1.421,0,-1.3909,-1.3932,-1.3958,-1.3975,-1.4,-1.4017,-1.4041,-1.4055,-1.4074,-1.4093,-1.4103,-1.412,-1.4138,-1.4156,-1.4167,-1.4191,-1.4197,-1.4203,-1.4205,-1.4202,-1.4201,-1.4209,-1.4208,-1.4211,-1.4211,-1.4211,-1.4211,0,-1.392,-1.3939,-1.397,-1.3999,-1.4007,-1.4024,-1.4048,-1.4064,-1.4077,-1.4101,-1.4107,-1.4128,-1.4151,-1.4167,-1.4196,-1.4203,-1.4228,-1.4231,-1.4221,-1.4222,-1.4233,-1.4231,-1.4265,-1.427,-1.4249,-1.4249,-1.425,0,-1.3933,-1.3951,-1.3982,-1.3996,-1.4011,-1.4033,-1.4048,-1.4065,-1.4081,-1.4107,-1.412,-1.4144,-1.4164,-1.42,-1.4216,-1.4238,-1.4241,-1.4251,-1.4244,-1.424,-1.424,-1.4239,-1.424,-1.4252,-1.4252,-1.4252,-1.4252,0,-1.3954,-1.3963,-1.3985,-1.4011,-1.403,-1.405,-1.4071,-1.4081,-1.4101,-1.4118,-1.4142,-1.4158,-1.4188,-1.4211,-1.4235,-1.4247,-1.4253,-1.4255,-1.4258,-1.4254,-1.4248,-1.4251,-1.4224,-1.4254,-1.4253,-1.4253,-1.4253,-1.4253,-1.3966,-1.3982,-1.4007,-1.4032,-1.4049,-1.4068,-1.4085,-1.4101,-1.4122,-1.4149,-1.4157,-1.4182,-1.4203,-1.4236,-1.4249,-1.4268,-1.4267,-1.4272,-1.4274,-1.4275,-1.4274,-1.4246,-1.4272,-1.4272,-1.4272,-1.4272,-1.4272,0,-1.3987,-1.4004,-1.4026,-1.4056,-1.4075,-1.408,-1.4103,-1.4118,-1.414,-1.416,-1.418,-1.4208,-1.423,-1.4249,-1.4272,-1.4283,-1.4286,-1.4289,-1.4288,-1.429,-1.4274,-1.4268,-1.4286,-1.4286,-1.4286,-1.4286,-1.4286,-1.4286,-1.4,-1.4028,-1.4039,-1.4075,-1.4091,-1.4117,-1.4129,-1.4146,-1.4162,-1.4193,-1.4213,-1.4225,-1.4244,-1.4269,-1.4289,-1.4294,-1.4302,-1.4304,-1.4309,-1.4293,-1.4291,-1.429,-1.4285,-1.4305,-1.4305,-1.4323,-1.4324,-1.4324]}]]